[[{"header":{"parameterUnit":"m.s-1","parameterCategory":1,"la1":30.2991,"la2":30.254,"lo1":-89.0895,"lo2":-89.0444,"dy":0.0017,"dx":0.0017,"nx":28,"ny":28,"refTime":"2024-07-28T09:00:00:Z","depth":0,"parameterNumber":2,"parameterNumberName":"U-component_of_WINDS"},"data":[0,0,0,0,0,0,0,0,0,0,0,0,0,0,0,0,0,0,0,0,0,0,0,0,0,0,0,0,0,0,0,0,0,0,0,0,0,0,0,0,0,0,0,0,0,0,0,0,0,0,0,0,0,0,0,0,0,0,-0.826,-0.8261,0,-0.8288,-0.8288,-0.8288,-0.8279,-0.8279,-0.8278,-0.8278,-0.8307,-0.8308,-0.8309,0,0,0,0,0,0,0,0,0,0,0,0,0,-0.8201,-0.8202,-0.826,-0.8261,-0.8261,-0.8288,-0.8288,-0.8289,-0.8279,-0.8279,-0.8278,-0.8277,-0.8306,-0.8308,-0.8309,0,0,0,0,0,0,0,0,0,0,0,0,0,-0.8228,-0.8203,-0.826,-0.826,-0.826,-0.8288,-0.8288,-0.8289,-0.828,-0.8279,-0.8278,-0.8277,-0.8306,-0.8308,-0.831,-0.834,0,0,-0.8316,-0.8316,0,0,0,0,0,0,0,0,-0.8226,-0.823,-0.826,-0.826,-0.826,-0.8279,-0.8278,-0.8306,-0.828,-0.8272,-0.8277,-0.8276,-0.8298,-0.8301,-0.8308,-0.8341,-0.8342,-0.8316,-0.8317,-0.8318,-0.8318,0,0,0,0,0,0,0,-0.8224,-0.8229,-0.8271,-0.826,-0.826,-0.8258,-0.8261,-0.8283,-0.829,-0.8273,-0.8272,-0.8275,-0.8298,-0.8306,-0.8309,-0.8343,-0.8316,-0.8318,-0.8319,-0.832,-0.8402,-0.8403,0,0,0,0,0,0,-0.8222,-0.8227,-0.827,-0.8272,-0.8241,-0.826,-0.8263,-0.8274,-0.829,-0.8291,-0.8276,-0.8275,-0.8303,-0.8306,-0.831,-0.8346,-0.8318,-0.832,-0.8321,-0.8401,-0.8403,-0.8404,0,0,0,0,0,0,-0.8221,-0.8226,-0.8269,-0.825,-0.8255,-0.8262,-0.8274,-0.8275,-0.8283,-0.8292,-0.8294,-0.8283,-0.8302,-0.8307,-0.8332,-0.8347,-0.8321,-0.8322,-0.84,-0.8402,-0.8403,-0.8419,0,0,0,0,0,0,-0.8219,-0.8226,-0.8237,-0.825,-0.8256,-0.8291,-0.8275,-0.8276,-0.8286,-0.8285,-0.8299,-0.83,-0.8302,-0.8329,-0.8334,-0.8349,-0.8324,-0.8399,-0.8401,-0.8403,-0.8417,-0.842,-0.8424,0,0,0,0,0,-0.8217,-0.8241,-0.8238,-0.8243,-0.827,-0.8292,-0.8296,-0.8297,-0.8287,-0.8299,-0.8305,-0.83,-0.8344,-0.8332,-0.8338,-0.8353,-0.8398,-0.84,-0.8402,-0.8415,-0.842,-0.8423,0,0,0,0,0,0,-0.823,-0.8242,-0.8239,-0.8267,-0.8279,-0.8291,-0.8305,-0.8302,-0.8316,-0.8314,-0.8316,-0.8319,-0.8345,-0.8352,-0.8338,-0.8383,-0.837,-0.8373,-0.8378,-0.8382,-0.8385,-0.8383,-0.8326,0,0,0,0,0,-0.8236,-0.8252,-0.8263,-0.8286,-0.8292,-0.8298,-0.8307,-0.8307,-0.8319,-0.8324,-0.8332,-0.8344,-0.8361,-0.8372,-0.8388,-0.8418,-0.8421,-0.8431,-0.8435,-0.8437,-0.844,-0.8456,-0.8461,-0.8411,-0.8411,-0.8411,0,0,-0.8249,-0.8258,-0.8268,-0.8289,-0.8298,-0.8315,-0.8302,-0.8321,-0.8334,-0.8327,-0.8351,-0.8358,-0.8372,-0.8399,-0.8412,-0.8406,-0.8455,-0.844,-0.8442,-0.8444,-0.8459,-0.8464,-0.8468,-0.8413,-0.8412,-0.8412,0,0,-0.828,-0.8289,-0.8309,-0.8318,-0.8332,-0.8335,-0.834,-0.8353,-0.8357,-0.8381,-0.8377,-0.8392,-0.8421,-0.8431,-0.8439,-0.8475,-0.8471,-0.848,-0.8498,-0.8513,-0.8517,-0.8521,-0.8533,-0.8537,-0.8483,-0.8483,-0.8483,0,-0.8295,-0.832,-0.8321,-0.834,-0.8349,-0.8344,-0.8365,-0.8374,-0.8392,-0.8399,-0.8391,-0.8427,-0.8436,-0.8466,-0.8475,-0.8482,-0.8488,-0.8478,-0.8517,-0.852,-0.8523,-0.8535,-0.854,-0.8484,-0.8484,-0.8484,-0.8484,0,-0.8336,-0.8354,-0.8369,-0.8386,-0.8398,-0.8418,-0.8422,-0.8433,-0.8432,-0.8437,-0.8462,-0.8472,-0.849,-0.8497,-0.8497,-0.8527,-0.8523,-0.8516,-0.8502,-0.8529,-0.854,-0.8545,-0.8486,-0.8485,-0.8485,-0.8485,0,0,-0.8377,-0.8394,-0.8399,-0.8407,-0.8421,-0.8435,-0.8455,-0.8472,-0.8481,-0.8494,-0.8511,-0.8536,-0.8529,-0.8539,-0.854,-0.8554,-0.8581,-0.8545,-0.8546,-0.8551,-0.8615,-0.8619,-0.8624,-0.8578,-0.8579,-0.858,-0.8613,0,-0.8409,-0.8443,-0.8445,-0.8476,-0.8492,-0.8488,-0.8505,-0.8516,-0.8521,-0.8535,-0.8541,-0.8558,-0.8549,-0.8555,-0.8568,-0.8575,-0.8594,-0.8572,-0.8594,-0.8595,-0.859,-0.863,-0.8635,-0.8666,-0.8618,-0.8618,-0.8619,0,-0.8451,-0.8465,-0.8498,-0.8509,-0.8516,-0.8532,-0.8547,-0.8562,-0.8574,-0.8577,-0.8588,-0.8586,-0.8607,-0.8593,-0.8622,-0.8607,-0.8616,-0.8621,-0.8622,-0.8624,-0.8608,-0.8632,-0.8676,-0.868,-0.8626,-0.8625,-0.8625,0,-0.8477,-0.8503,-0.8526,-0.8533,-0.8547,-0.8558,-0.8565,-0.8576,-0.8586,-0.86,-0.8607,-0.8623,-0.8632,-0.8645,-0.8648,-0.8638,-0.8676,-0.8663,-0.8679,-0.8679,-0.8687,-0.8686,-0.8732,-0.8694,-0.8694,-0.8694,-0.8693,0,-0.8513,-0.8533,-0.8538,-0.8552,-0.8574,-0.8576,-0.8598,-0.8604,-0.8614,-0.863,-0.8627,-0.8642,-0.8645,-0.8661,-0.8664,-0.8686,-0.8691,-0.8693,-0.8694,-0.8693,-0.8693,-0.8699,-0.8696,-0.8695,-0.8695,-0.8694,-0.8694,0,-0.8544,-0.8549,-0.8573,-0.8585,-0.8588,-0.8604,-0.8614,-0.8628,-0.8632,-0.8652,-0.8657,-0.8664,-0.8682,-0.8686,-0.8708,-0.871,-0.8737,-0.8735,-0.8732,-0.8732,-0.8747,-0.8746,-0.8798,-0.8805,-0.8763,-0.8763,-0.8763,0,-0.8567,-0.8582,-0.8595,-0.8605,-0.8612,-0.8628,-0.8638,-0.864,-0.8651,-0.8666,-0.8678,-0.8696,-0.871,-0.8739,-0.8746,-0.8762,-0.8761,-0.8778,-0.8764,-0.8763,-0.8761,-0.876,-0.8761,-0.8781,-0.8781,-0.8782,-0.8782,0,-0.8606,-0.8607,-0.8621,-0.8636,-0.8648,-0.8661,-0.8672,-0.8681,-0.8685,-0.8697,-0.8715,-0.8726,-0.8748,-0.8765,-0.8782,-0.8789,-0.8786,-0.8787,-0.8791,-0.879,-0.8788,-0.8789,-0.8739,-0.8785,-0.8785,-0.8785,-0.8785,-0.8784,-0.8633,-0.8646,-0.8657,-0.8673,-0.8682,-0.8693,-0.8707,-0.8713,-0.8727,-0.8745,-0.8746,-0.8765,-0.8777,-0.8799,-0.8807,-0.8823,-0.8818,-0.8824,-0.8826,-0.8827,-0.8828,-0.8786,-0.8826,-0.8826,-0.8826,-0.8826,-0.8826,0,-0.8672,-0.8678,-0.8693,-0.8709,-0.8722,-0.8718,-0.8731,-0.8742,-0.8759,-0.877,-0.8784,-0.8804,-0.8821,-0.883,-0.8847,-0.8858,-0.8857,-0.8862,-0.8861,-0.8862,-0.8832,-0.8827,-0.8862,-0.8862,-0.8862,-0.8862,-0.8862,-0.8862,-0.8693,-0.8715,-0.8717,-0.8744,-0.8751,-0.8769,-0.8777,-0.8787,-0.8796,-0.8819,-0.8833,-0.8838,-0.8848,-0.8866,-0.8881,-0.8883,-0.889,-0.8895,-0.8897,-0.8868,-0.8865,-0.8861,-0.8856,-0.8897,-0.8897,-0.8925,-0.8926,-0.8926]},{"header":{"parameterUnit":"m.s-1","parameterCategory":1,"la1":30.2991,"la2":30.254,"lo1":-89.0895,"lo2":-89.0444,"dy":0.0017,"dx":0.0017,"nx":28,"ny":28,"refTime":"2024-07-28T09:00:00:Z","depth":0,"parameterNumber":3,"parameterNumberName":"V-component_of_WINDS"},"data":[0,0,0,0,0,0,0,0,0,0,0,0,0,0,0,0,0,0,0,0,0,0,0,0,0,0,0,0,0,0,0,0,0,0,0,0,0,0,0,0,0,0,0,0,0,0,0,0,0,0,0,0,0,0,0,0,0,0,3.3181,3.3182,0,3.3311,3.3312,3.3314,3.3268,3.3265,3.3262,3.3259,3.3387,3.3393,3.3399,0,0,0,0,0,0,0,0,0,0,0,0,0,3.2886,3.2891,3.318,3.3182,3.3184,3.3311,3.3312,3.3314,3.3268,3.3265,3.3261,3.3258,3.3385,3.3392,3.34,0,0,0,0,0,0,0,0,0,0,0,0,0,3.3014,3.2893,3.318,3.3176,3.3177,3.331,3.3313,3.3315,3.3269,3.3265,3.326,3.3256,3.3383,3.3392,3.3401,3.3544,0,0,3.3429,3.3433,0,0,0,0,0,0,0,0,3.3007,3.3025,3.3175,3.3177,3.3178,3.3269,3.3255,3.3391,3.327,3.3234,3.3259,3.3254,3.3351,3.3362,3.3396,3.355,3.3555,3.343,3.3435,3.3439,3.3442,0,0,0,0,0,0,0,3.2998,3.3019,3.3232,3.3177,3.3179,3.3166,3.3179,3.3281,3.3315,3.3237,3.3234,3.325,3.3351,3.3388,3.3399,3.3557,3.3429,3.3437,3.3443,3.3447,3.3832,3.3837,0,0,0,0,0,0,3.299,3.3012,3.3228,3.3236,3.308,3.3175,3.319,3.3244,3.3314,3.332,3.3254,3.3248,3.3374,3.3388,3.3403,3.3574,3.3439,3.3447,3.3453,3.3828,3.3833,3.3839,0,0,0,0,0,0,3.2983,3.3009,3.3222,3.3123,3.315,3.3185,3.3246,3.3249,3.3285,3.3327,3.3332,3.3285,3.3371,3.339,3.3509,3.3578,3.3452,3.346,3.3822,3.3829,3.3836,3.3918,0,0,0,0,0,0,3.2975,3.3007,3.3064,3.3125,3.3155,3.3329,3.325,3.3254,3.3302,3.3295,3.3358,3.3364,3.3369,3.3496,3.3518,3.3588,3.3467,3.3816,3.3825,3.3834,3.3909,3.3927,3.3942,0,0,0,0,0,3.2965,3.3081,3.3067,3.3093,3.3227,3.3333,3.335,3.3355,3.3308,3.3364,3.339,3.3362,3.3567,3.3508,3.3533,3.3607,3.3812,3.3823,3.3833,3.3902,3.3924,3.3942,0,0,0,0,0,0,3.3025,3.3089,3.3074,3.3214,3.3268,3.3325,3.3395,3.3378,3.3446,3.3436,3.3438,3.3453,3.3575,3.3603,3.3536,3.3748,3.3682,3.3698,3.3726,3.3747,3.3763,3.3753,3.3475,0,0,0,0,0,3.3055,3.3138,3.3188,3.3306,3.3335,3.3361,3.3407,3.3406,3.3462,3.3485,3.3519,3.3573,3.3649,3.3699,3.3772,3.3913,3.3925,3.3976,3.3992,3.4006,3.4019,3.4094,3.4117,3.3874,3.3874,3.3873,0,0,3.3117,3.3162,3.3214,3.3319,3.3362,3.3445,3.338,3.3472,3.3533,3.3498,3.3612,3.364,3.3699,3.383,3.3889,3.3857,3.4089,3.4019,3.403,3.4036,3.4108,3.4131,3.4151,3.3881,3.388,3.3879,0,0,3.3272,3.3315,3.3418,3.3462,3.3527,3.3543,3.3568,3.3627,3.3645,3.376,3.3735,3.3807,3.3939,3.3982,3.4021,3.4192,3.4168,3.4215,3.4301,3.4374,3.4393,3.441,3.447,3.4491,3.4229,3.4229,3.4229,0,3.334,3.3467,3.3472,3.3566,3.3613,3.3586,3.3689,3.373,3.3815,3.3847,3.381,3.3974,3.4013,3.4152,3.4194,3.4227,3.4253,3.4208,3.439,3.4407,3.4423,3.448,3.4502,3.4234,3.4234,3.4233,3.4233,0,3.3547,3.3635,3.371,3.3794,3.3849,3.3947,3.3965,3.4019,3.4013,3.4033,3.4149,3.4195,3.4275,3.4308,3.4303,3.4447,3.4424,3.4389,3.4323,3.4452,3.4505,3.4527,3.4242,3.424,3.4238,3.4237,0,0,3.3744,3.383,3.3857,3.3895,3.3964,3.4032,3.4127,3.4207,3.4253,3.4312,3.4391,3.4503,3.447,3.4515,3.4514,3.4578,3.4709,3.4535,3.4536,3.4565,3.4867,3.4893,3.4918,3.4694,3.4698,3.4701,3.4862,0,3.3905,3.4075,3.4081,3.4235,3.4316,3.4291,3.4374,3.4424,3.4444,3.4514,3.4535,3.4614,3.4566,3.4593,3.4655,3.468,3.4769,3.4668,3.4765,3.4768,3.475,3.4947,3.4974,3.5124,3.4883,3.4887,3.4889,0,3.4115,3.4182,3.4344,3.4401,3.4435,3.451,3.4583,3.4651,3.4706,3.4716,3.4766,3.4756,3.4851,3.4781,3.4911,3.4842,3.4882,3.49,3.4905,3.4914,3.4836,3.4959,3.5172,3.5194,3.4922,3.492,3.4917,0,3.4241,3.4372,3.4485,3.4518,3.4588,3.464,3.4671,3.4723,3.4771,3.4834,3.4864,3.4938,3.4977,3.5033,3.5042,3.4991,3.5172,3.5103,3.5181,3.5181,3.522,3.5217,3.5441,3.5247,3.5246,3.5246,3.5246,0,3.4419,3.4519,3.4543,3.4613,3.4723,3.4729,3.4838,3.4864,3.491,3.4983,3.4966,3.5034,3.5042,3.5112,3.5119,3.5224,3.5242,3.5252,3.5252,3.5253,3.5252,3.5279,3.5268,3.5252,3.5251,3.5249,3.5248,0,3.4579,3.4599,3.4721,3.4777,3.4794,3.4872,3.4919,3.4985,3.5003,3.5095,3.5117,3.5145,3.5227,3.5241,3.5336,3.5341,3.5467,3.5457,3.5449,3.5447,3.5524,3.5516,3.5772,3.5805,3.559,3.5592,3.5594,0,3.4691,3.4767,3.4832,3.488,3.4914,3.4992,3.5041,3.5049,3.51,3.5168,3.5225,3.5305,3.5369,3.55,3.5527,3.5599,3.5591,3.5675,3.5601,3.5599,3.5591,3.5586,3.5593,3.5689,3.5692,3.5694,3.5695,0,3.4887,3.4893,3.4965,3.504,3.5099,3.5158,3.5214,3.5254,3.5269,3.5327,3.541,3.546,3.5558,3.5637,3.5708,3.5738,3.5719,3.5718,3.574,3.5741,3.5733,3.5737,3.5487,3.5712,3.5711,3.5709,3.5708,3.5708,3.5025,3.5092,3.5148,3.5227,3.5271,3.5323,3.5388,3.5414,3.5485,3.5566,3.5566,3.5657,3.5708,3.5803,3.5837,3.5907,3.588,3.5911,3.5919,3.5927,3.5934,3.5722,3.592,3.592,3.5919,3.5919,3.5919,0,3.522,3.5254,3.5328,3.5407,3.547,3.5448,3.5509,3.5562,3.5643,3.5694,3.5757,3.5852,3.5928,3.5962,3.6036,3.6085,3.6078,3.6104,3.61,3.6107,3.5954,3.5928,3.6109,3.6109,3.6109,3.6109,3.6109,3.6109,3.5328,3.5439,3.5452,3.5583,3.5616,3.5707,3.5743,3.579,3.5831,3.5939,3.6002,3.6024,3.6067,3.6144,3.6212,3.622,3.6247,3.6277,3.6281,3.6137,3.6118,3.61,3.6075,3.6284,3.6284,3.6428,3.6429,3.643]}]]